Volver al catálogo

HULIANWANG DIGUI-106

ActivoComunicacionesLEO
NORAD 66916·PAYLOAD·🇨🇳 China

Lanzado Dec 6, 2025 desde Wenchang Space Launch Site

Loading…

Próximos Pases (próximas 24 horas)

TLE

ActualizadoSource: Space-Track

Época: Sep 14, 2026, 04:19 UTC

1 66916U 25285B   26257.18031045 -.00000089  00000-0  75546-4 0  9993
2 66916  50.0056 187.0047 0000212 227.6688 132.4166 13.29325658 37891

Sigue HULIANWANG DIGUI-106 en tiempo real con AllMySat

Download on the App Store